Weather in Verkhnelebyazhye

Russia / Astrakhan Oblast     46°45′00″N   47°48′41″E
temp.,
°C
wind,
m/s
gust,
m/s
humid.,
%
clouds,
%
prec.,
mm/h
press.,
hPa
HPBL,
m
26 october, tue
tue2601:00+4nnw48523 0.0 1029203
04:00+2nnw47624 0.0 1030150
07:00+1nnw36725 0.0 1031113
10:00+5nnw45565 0.0 1032585
13:00+8nnw334578 0.0 10321430
16:00+8nw444218 0.0 10311339
19:00+5nw33545 0.0 103256
22:00+4n22574 0.0 103311
27 october, wed
wed2701:00+3nne11615 0.0 103310
04:00+1n11650 0.0 103310
07:00+1ene11720 0.0 103210
10:00+6se12470 0.0 1033325
13:00+9s33370 0.0 1031992
16:00+10s33320 0.0 10301072
19:00+7s33440 0.0 102932
22:00+5s46695 0.0 1028119
28 october, thu
thu2801:00+4sse35785 0.0 102765
04:00+4sse45845 0.0 102662
07:00+4sse33858 0.0 102629
10:00+9s466111 0.0 1025397
13:00+12ssw4551100 0.0 10241344
16:00+13sw3449100 0.0 10221478
19:00+11ssw4669100 0.0 1023261
22:00+10wsw2375100 0.1 1022124
29 october, fri
fri2901:00+9nw3568100 0.0 1021119
04:00+7wnw356684 0.0 1021107
07:00+6w46505 0.0 1022101
10:00+10w684723 0.0 1022408
13:00+10w61051100 0.0 1022540
16:00+9wnw51070100 0.1 1022596
19:00+9wnw488099 0.0 1024348
22:00+9nw5984100 0.1 1025400
30 october, sat
sat3001:00+7n6107723 0.0 1027587
04:00+4n510814 0.0 1029344
07:00+1n59690 0.0 1032291
10:00+3n57520 0.0 1034450
13:00+7n56390 0.0 1034855
16:00+8n56340 0.0 1035926
19:00+5n35410 0.0 103683
22:00+3nne33420 0.0 103724